This is the latest recevied weather packets stored in our database for station/object KM7BEO. If no packets are shown the sender has not sent any weather packets the latest 10 day(s).
| Time | Temp. | Humidity | Pressure | Rain* | Wind** | Luminosity | Snow |
|---|---|---|---|---|---|---|---|
| 1778186495 | 15° C | 66% | 1019.1 hPa | 0 mm | - | 862 W/m² | - |
| 1778186192 | 15° C | 66% | 1019.1 hPa | 0 mm | - | 854 W/m² | - |
| 1778185889 | 15° C | 68% | 1019.2 hPa | 0 mm | - | 836 W/m² | - |
| 1778185585 | 14.44° C | 69% | 1019.3 hPa | 0 mm | - | 800 W/m² | - |
| 1778185281 | 14.44° C | 69% | 1019.3 hPa | 0 mm | - | 782 W/m² | - |
| 1778184976 | 14.44° C | 69% | 1019.3 hPa | 0 mm | - | 371 W/m² | - |
| 1778184674 | 15° C | 68% | 1019.5 hPa | 0 mm | - | 808 W/m² | - |
| 1778184369 | 14.44° C | 69% | 1019.5 hPa | 0 mm | - | 803 W/m² | - |
| 1778184065 | 14.44° C | 67% | 1019.5 hPa | 0 mm | - | 761 W/m² | - |
| 1778183763 | 14.44° C | 69% | 1019.3 hPa | 0 mm | - | 739 W/m² | - |
| 1778183460 | 14.44° C | 69% | 1019.4 hPa | 0 mm | - | 723 W/m² | - |
| 1778183156 | 13.89° C | 69% | 1019.4 hPa | 0 mm | - | 719 W/m² | - |
| 1778182852 | 13.89° C | 70% | 1019.4 hPa | 0 mm | - | 712 W/m² | - |
| 1778182549 | 13.89° C | 69% | 1019.7 hPa | 0 mm | - | 709 W/m² | - |
| 1778182246 | 13.89° C | 69% | 1019.6 hPa | 0 mm | - | 704 W/m² | - |
| 1778181942 | 13.89° C | 70% | 1019.6 hPa | 0 mm | - | 703 W/m² | - |
| 1778181639 | 13.89° C | 68% | 1019.7 hPa | 0 mm | - | 698 W/m² | - |
| 1778181335 | 14.44° C | 69% | 1019.7 hPa | 0 mm | - | 705 W/m² | - |
| 1778181032 | 13.89° C | 70% | 1019.7 hPa | 0 mm | - | 703 W/m² | - |
| 1778180729 | 14.44° C | 69% | 1019.8 hPa | 0 mm | - | 692 W/m² | - |
| 1778180428 | 13.89° C | 69% | 1019.7 hPa | 0 mm | - | 690 W/m² | - |
| 1778180126 | 14.44° C | 69% | 1019.9 hPa | 0 mm | - | 691 W/m² | - |
| 1778179822 | 13.89° C | 70% | 1019.8 hPa | 0 mm | - | 679 W/m² | - |
| 1778179521 | 13.33° C | 72% | 1019.8 hPa | 0 mm | - | 507 W/m² | - |
| 1778179218 | 13.33° C | 71% | 1019.9 hPa | 0 mm | - | 550 W/m² | - |
* Rain latest hour (hover to see other rain measurements)
** Current wind speed in m/s (hover to see current wind gust speed)